Location: Vista Encantada
(35.1109°N, 106.5681°W)
Time: 11:20:23
(UTC+00:00)

X-37B - Visible Passes

Search period start: 17 September 2021 00:00
Search period end: 27 September 2021 00:00
Orbit: 381 x 393 km, 45.0° (Epoch: 29 August)

Date Brightness Start Highest point End Pass type
(mag) Time Alt. Az. Time Alt. Az. Time Alt. Az.
18 Sep 3.0 11:41:31 10° S 11:43:45 18° SE 11:46:00 10° E visible
19 Sep 0.6 12:18:37 10° SW 12:21:46 82° SSE 12:24:56 10° ENE visible
20 Sep 1.6 11:22:55 34° SSE 11:23:27 37° SE 11:26:25 10° ENE visible
21 Sep 1.0 11:59:47 21° W 12:01:39 49° NNW 12:04:43 10° NE visible
22 Sep 1.9 11:04:16 39° ENE 11:04:16 39° ENE 11:06:24 10° ENE visible
23 Sep 1.8 11:40:58 26° NW 11:41:36 29° NNW 11:44:25 10° NE visible
24 Sep 3.5 10:45:19 17° NE 10:45:19 17° NE 10:46:12 10° NE visible
24 Sep 2.8 12:18:13 10° NW 12:20:16 16° N 12:22:18 10° NNE visible
25 Sep 2.6 11:21:55 20° N 11:21:55 20° N 11:24:04 10° NE visible
26 Sep 3.1 11:58:40 10° NW 12:00:24 14° N 12:02:10 10° NNE visible
